This demonstration page uses our WeatherBlox Daily Observations layout. Learn more.

Left ArrowRight Arrow

41.55636, -103.73856

Hourly Observations for July 27, 2020

Temp ( °F °C ) Dew Point ( °F °C ) Humidity (%) Winds ( mph kmh ) Pressure ( in mb ) Visibility ( mi km ) Precip ( " mm )
6:58 pm 18:58 Clear 76 24.6 56 13.3 49 49 E 7 11 30.09 1019 10 16 0.00 0.00
7:58 pm 19:58 Clear 72 22.4 56 13.4 57 57 ESE 6 9 30.11 1020 10 16 0.00 0.00
8:58 pm 20:58 Partly Cloudy 69 20.4 56 13.3 64 64 SE 6 9 30.14 1021 10 16 0.00 0.00
9:58 pm 21:58 Mostly Clear 68 20.1 56 13.3 65 65 SSE 9 15 30.14 1021 10 16 0.00 0.00
10:58 pm 22:58 Clear 64 17.8 56 13.2 75 75 SSW 7 11 30.16 1022 10 16 0.00 0.00
11:58 pm 23:58 Clear 61 16.3 56 13.1 81 81 E 3 6 30.18 1022 10 16 0.00 0.00
12:58 am 00:58 Clear 64 17.8 59 15.2 85 85 SSE 13 20 30.16 1022 10 16 0.00 0.00
1:58 am 01:58 Partly Cloudy 64 18 62 16.5 91 91 S 13 20 30.16 1021 10 16 0.00 0.00
2:58 am 02:58 Clear 63 17.1 60 15.8 92 92 S 8 13 30.15 1021 9 14 0.00 0.00
3:58 am 03:58 Mostly Cloudy 64 17.7 62 16.7 94 94 S 14 22 30.13 1020 10 16 0.00 0.00
4:58 am 04:58 Mostly Cloudy 64 17.5 61 16 91 91 SSW 14 22 30.13 1020 10 16 0.00 0.00
5:58 am 05:58 Mostly Cloudy 64 17.9 61 16.1 89 89 SW 7 11 30.13 1020 10 16 0.00 0.00
6:58 am 06:58 Mostly Cloudy 65 18.2 60 15.8 86 86 SW 6 9 30.15 1021 10 16 0.00 0.00
7:58 am 07:58 Mostly Cloudy 67 19.5 60 15.5 78 78 SW 8 13 30.16 1021 10 16 0.00 0.00
8:58 am 08:58 Mostly Sunny 70 21.1 58 14.7 67 67 SSW 3 6 30.16 1021 10 16 0.00 0.00
9:58 am 09:58 Mostly Sunny 73 23 58 14.6 59 59 SW 3 6 30.13 1020 10 16 0.00 0.00
10:58 am 10:58 Sunny 77 25 57 14 51 51 WSW 6 9 30.13 1020 10 16 0.00 0.00
11:58 am 11:58 Mostly Sunny 82 27.6 54 12.2 38 38 E 7 11 30.11 1020 10 16 0.00 0.00
12:58 pm 12:58 Mostly Cloudy 84 28.8 54 12.3 36 36 SE 7 11 30.09 1019 10 16 0.00 0.00
1:58 pm 13:58 Mostly Cloudy 87 30.5 52 11.3 31 31 S 9 15 30.05 1018 10 16 0.00 0.00
2:58 pm 14:58 Mostly Cloudy 87 30.3 52 10.9 30 30 SSE 9 15 30.04 1017 10 16 0.00 0.00
3:58 pm 15:58 Mostly Sunny 88 31.1 49 9.2 26 26 S 12 19 30.02 1017 10 16 0.00 0.00
4:58 pm 16:58 Partly Cloudy 87 30.4 48 9 26 26 SSW 8 13 30.00 1016 10 16 0.00 0.00
5:58 pm 17:58 Sunny 86 30.2 50 10 29 29 SE 12 19 29.98 1015 10 16 0.00 0.00

Powered by AerisWeather